Location: Unspecified
(35.7250°N, 0.0000°E)
Time: 02:39:23
(UTC+00:00)

Vanguard 2 - Pass Details

Date: 24 June 2019
Orbit: 553 x 2938 km, 32.9° (Epoch: 23 July)

Event Time Altitude Azimuth Distance (km) Brightness Sun altitude
Rises 06:19:50 0° 220° (SW) 2,730 9.9 16.8°
Reaches altitude 10° 06:22:12 10° 205° (SSW) 1,914 9.3 17.2°
Maximum altitude 06:25:40 24° 150° (SSE) 1,390 9.2 17.9°
Drops below altitude 10° 06:30:05 10° 96° (E) 2,492 11.7 18.8°
Sets 06:33:39 0° 84° (E) 3,798 12.6 19.5°
